Location: Helion Bumpstead
(52.0500°N, 0.4000°E)
Time: 06:25:05
(UTC+00:00)

NOSS 3-1 (A) - Visible Passes

Search period start: 12 February 2026 00:00
Search period end: 22 February 2026 00:00
Orbit: 613 x 1593 km, 63.4° (Epoch: 10 January)

Date Brightness Start Highest point End Pass type
(mag) Time Alt. Az. Time Alt. Az. Time Alt. Az.
12 Feb 5.6 05:19:50 10° SSE 05:22:58 18° ESE 05:26:27 10° ENE visible
13 Feb 3.6 06:22:27 10° SSW 06:27:06 61° SE 06:32:48 10° NE visible
14 Feb 4.4 05:37:25 10° S 05:41:44 38° ESE 05:46:53 10° NE visible
15 Feb 5.2 04:52:50 10° SSE 04:56:31 23° ESE 05:00:44 10° ENE visible
16 Feb 5.6 04:09:09 10° SE 04:11:27 13° ESE 04:13:55 10° ENE visible
16 Feb 3.2 05:56:07 10° SW 06:00:50 76° SE 06:06:43 10° NE visible
17 Feb 3.9 05:10:53 10° SSW 05:15:23 48° ESE 05:20:52 10° NE visible
18 Feb 4.6 04:26:57 15° S 04:30:05 30° ESE 04:34:50 10° ENE visible
18 Feb 3.2 06:15:29 10° WSW 06:20:19 62° NW 06:26:25 10° NE visible
19 Feb 5.1 03:43:09 15° SE 03:44:57 18° ESE 03:48:28 10° ENE visible
19 Feb 3.0 05:30:33 15° SW 05:34:37 88° NW 05:40:37 10° NE visible
20 Feb 3.4 04:46:39 29° SSW 04:49:04 61° SE 04:54:47 10° NE visible
21 Feb 4.0 04:02:41 34° SSE 04:03:41 38° ESE 04:08:51 10° NE visible
21 Feb 3.4 05:50:04 14° WSW 05:54:13 53° NNW 06:00:18 10° NE visible
